Zurück zum Katalog

ONEWEB-0252

AktivKommunikationPO
NORAD 48970·PAYLOAD·🇬🇧 United Kingdom

Gestartet Jul 1, 2021 von Vostochny Cosmodrome

Loading…

Nächste Überflüge (nächste 24 Stunden)

TLE

AktuellSource: CelesTrak SupGP

Epoche: Sep 14, 2026, 22:03 UTC

1 48970C 21060D   26257.91891620 -.00002900  00000+0 -75954-2 0  2576
2 48970  87.9155 210.9535 0002102  89.3234 302.6403 13.16602354    14

Verfolge ONEWEB-0252 in Echtzeit mit AllMySat

Download on the App Store